Location: Castelbiague
(43.0361°N, 0.9246°E)
Time: 06:44:22
(UTC+00:00)

USA 215 - Visible Passes

Search period start: 18 October 2021 00:00
Search period end: 28 October 2021 00:00
Orbit: 1093 x 1114 km, 123.0° (Epoch: 14 October)

Date Brightness Start Highest point End Pass type
(mag) Time Alt. Az. Time Alt. Az. Time Alt. Az.
18 Oct 4.6 18:14:10 10° NE 18:19:46 31° NNW 18:25:21 10° WNW visible
18 Oct 4.6 20:00:28 25° NNE 20:01:32 26° N 20:06:45 10° NW visible
18 Oct 5.4 21:47:49 18° NW 21:47:49 18° NW 21:49:31 10° NW visible
19 Oct 4.2 17:31:24 10° NE 17:37:28 43° NNW 17:43:33 10° W visible
19 Oct 4.7 19:16:00 17° NE 19:19:26 26° N 19:24:40 10° WNW visible
19 Oct 4.9 21:03:22 25° NNW 21:03:22 25° NNW 21:06:45 10° NW visible
20 Oct 4.6 18:31:44 10° NE 18:37:18 31° NNW 18:42:53 10° WNW visible
20 Oct 4.7 20:18:54 26° N 20:19:05 26° N 20:24:17 10° NW visible
20 Oct 5.7 22:06:15 14° NW 22:06:15 14° NW 22:07:03 10° NW visible
21 Oct 4.2 17:48:58 10° NE 17:55:01 42° NNW 18:01:06 10° W visible
21 Oct 4.7 19:34:27 21° NNE 19:36:59 26° N 19:42:13 10° WNW visible
21 Oct 5.2 21:21:48 21° NNW 21:21:48 21° NNW 21:24:18 10° NW visible
22 Oct 4.6 18:50:01 13° NE 18:54:51 31° NNW 19:00:26 10° WNW visible
22 Oct 4.8 20:37:21 26° N 20:37:21 26° N 20:41:50 10° NW visible
23 Oct 4.2 18:06:31 10° NE 18:12:34 42° NNW 18:18:38 10° W visible
23 Oct 4.7 19:52:55 24° NNE 19:54:32 26° N 19:59:45 10° WNW visible
23 Oct 5.5 21:40:16 17° NW 21:40:16 17° NW 21:41:51 10° NW visible
24 Oct 3.6 17:23:37 10° NE 17:30:06 65° NW 17:36:33 10° WSW visible
24 Oct 4.6 19:08:29 17° NNE 19:12:23 31° NNW 19:17:58 10° WNW visible
24 Oct 5.0 20:55:50 24° NNW 20:55:50 24° NNW 20:59:23 10° NW visible
25 Oct 4.2 18:24:03 10° NE 18:30:07 42° NNW 18:36:11 10° W visible
25 Oct 4.7 20:11:25 26° N 20:12:05 26° N 20:17:18 10° WNW visible
25 Oct 5.8 21:58:46 13° NW 21:58:46 13° NW 21:59:24 10° NW visible
26 Oct 3.6 17:41:11 10° NE 17:47:39 65° NW 17:54:06 10° WSW visible
26 Oct 4.6 19:27:00 22° NNE 19:29:57 31° NNW 19:35:31 10° WNW visible
26 Oct 5.3 21:14:22 20° NNW 21:14:22 20° NNW 21:16:56 10° NW visible
27 Oct 4.2 18:42:36 15° NE 18:47:40 42° NNW 18:53:43 10° W visible
27 Oct 4.8 20:29:57 26° N 20:29:57 26° N 20:34:50 10° WNW visible
